Regional Weather Roundup
Issued by NWS

Home | Current Version | Previous Version | Graphics & Text | Print | Product List | Glossary On
Versions: 1 2 3 4 5 6 7 8 9 10 11 12 13 14 15 16 17 18 19 20 21 22 23 24 25 26 27 28 29 30 31 32 33 34 35 36 37 38 39 40 41 42 43 44 45 46 47 48 49 50
000
ASUS43 KLSX 252357
RWRMO

WEATHER SUMMARY FOR MISSOURI
NATIONAL WEATHER SERVICE SPRINGFIELD MO
700 PM CDT WED APR 25 2018

NOTE: "FAIR" INDICATES FEW OR NO CLOUDS BELOW 12,000 FEET WITH NO
       SIGNIFICANT WEATHER AND/OR OBSTRUCTIONS TO VISIBILITY.
       CURRENT SKY AND/OR WEATHER CONDITIONS ARE NOT AVAILABLE FOR
       CHILLICOTHE AND FARMINGTON.

MOZ001>031-035>038-043-044-053-054-260100-
...NORTHERN AND WESTERN MISSOURI...

CITY           SKY/WX    TMP DP  RH WIND       PRES   REMARKS
KANSAS CTY INT CLOUDY    50  48  93 N7        30.05F
6HR MIN TEMP:  47; 6HR MAX TEMP:  51; 6HR PCP:  0.31;

LEE`S SUMMIT   CLOUDY    49  49 100 N9        30.05F
6HR MIN TEMP:  48; 6HR MAX TEMP:  50; 6HR PCP:  0.26;

ST JOSEPH      CLOUDY    52  40  63 NE9       30.07F
6HR MIN TEMP:  48; 6HR MAX TEMP:  55; 6HR PCP:  0.06;

CHILLICOTHE      N/A     53  48  83 VRB3      30.05F
6HR MIN TEMP:  50; 6HR MAX TEMP:  53; 6HR PCP:  0.05;


$$
MOZ066>068-077>081-088>096-101>105-260100-
...SOUTHWEST MISSOURI...

CITY           SKY/WX    TMP DP  RH WIND       PRES   REMARKS
SPRINGFIELD    LGT RAIN  53  48  83 E3        29.98F
6HR MIN TEMP:  53; 6HR MAX TEMP:  56; 6HR PCP:  0.33;

JOPLIN         LGT RAIN  53  51  93 VRB3      29.99F
6HR MIN TEMP:  52; 6HR MAX TEMP:  56; 6HR PCP:  0.75;

BRANSON        LGT RAIN  50  50 100 CALM      29.99F FOG

$$
MOZ032>034-039>042-045>050-055>058-069>072-260100-
...CENTRAL MISSOURI...

CITY           SKY/WX    TMP DP  RH WIND       PRES   REMARKS
COLUMBIA       NOT AVBL
JEFFERSON CITY LGT RAIN  52  50  93 NW7       30.02F
6HR MIN TEMP:  52; 6HR MAX TEMP:  62; 6HR PCP:  0.02;

ROLLA          LGT RAIN  51  48  89 NW8       30.01F
6HR MIN TEMP:  51; 6HR MAX TEMP:  60; 6HR PCP:  0.05;

SEDALIA        LGT RAIN  51  50  96 N7        30.04F
6HR MIN TEMP:  51; 6HR MAX TEMP:  53; 6HR PCP:  0.08;

WARRENSBURG    LGT RAIN  50  46  87 NE5       30.05F

$$
MOZ051-052-059>065-260100-
...EAST CENTRAL MISSOURI...

CITY           SKY/WX    TMP DP  RH WIND       PRES   REMARKS
ST LOUIS INTL  CLOUDY    63  48  58 NW7       29.97F
6HR MIN TEMP:  63; 6HR MAX TEMP:  66;


$$
MOZ072>076-082>087-097>100-106>115-260100-
...SOUTH CENTRAL AND SOUTHEAST MISSOURI...

CITY           SKY/WX    TMP DP  RH WIND       PRES   REMARKS
CAPE GIRARDEAU CLOUDY    64  54  69 SW9       29.92F
6HR MIN TEMP:  64; 6HR MAX TEMP:  71;

POPLAR BLUFF   CLOUDY    62  49  62 SW8       29.96S
6HR MIN TEMP:  62; 6HR MAX TEMP:  70; 6HR PCP: TRACE;

WEST PLAINS    CLOUDY    55  51  86 N3        30.00F
6HR MIN TEMP:  55; 6HR MAX TEMP:  60; 6HR PCP:  0.03;


$$




USA.gov is the U.S. government's official web portal to all federal, state and local government web resources and services.